Showing default

DROID-001, 56965

Orbit data source: Space-Track

DROID-001, 56965 is a payload satellite owned by Turion Space (US) in SSO that was launched on Mon, 12 Jun 2023 UTC via an FALCON 9 launch vehicle from the Air Force Western Test Range (AFWTR). Payload-class satellites include a variety of spacecraft equipped with specific instruments for various scientific and technological missions. These include communications satellites like Starlink; space stations such as the ISS; scientific satellites like the Hubble; Earth observation satellites from companies like Planet Labs, Umbra, and HawkEye 360; GPS; miniature CubeSats for education and research; and military/defense satellites.

Loading next visibility...
Identifier
56965, 2023-084AK
Orbit
SSO
Last TLE update
22 hours ago
Origin
Manufacturer
NanoAvionics
Mission
Operational Commercial Technology
Bus & Motor
CUBESAT MP42H, Unknown motor
Mass
32 kg wet, 32 kg dry
Launch date (UTC)
2023-06-12 (2 years ago)
Launch vehicle
FALCON 9
Launch site
Air Force Western Test Range (AFWTR)
Object type
Payload
Rocket body
Debris
Shape & HBR
Box + 2 Pan, 0.9 m
Radar Cross Section
0.257 m², Medium (>0.1 m² and < 1m²)

Expand to show TLE details & history

TLE from 22 hours ago
0 DROID-001
1 56965U 23084AK  25108.95594402  .00039233  00000-0  85337-3 0  9991
2 56965  97.5621 240.0128 0005785   0.1021   0.0227 15.44199142102979
Epoch: 2025-04-18T22:56Z
Definitive object data (Epoch: 2025-04-18T22:56:33.563Z)
Latitude
-0.00001°
Longitude
48.56689°
Altitude
432.909 km
Speed
7.654 km/s
True Right ascension
16h 00m 03s
True Declination
0° 00' 00"
Sunlit
Object was in full shadow at TLE epoch
Visualization TLE readout
Latitude
37.65428°
Longitude
-124.61654°
Altitude
442.082 km
Speed
7.649 km/s
Apparent Right ascension
06h 35m 39s
Apparent Declination
6° 56' 01"
Sunlit
Object is in daylight
Visualization observer readout
Local Sidereal Time
04:12:06
Azimuth
126.046° SE
Elevation
43.973°
Doppler factor
1
Orbital elements
Apogee altitude
434.612 km
Perigee altitude
426.734 km
Semi-major axis
6,808.81 km
Eccentricity
0.0005785
Inclination
97.5621°
RAAN
240.0128°
Arg. of periapsis
0.1021°
True anomaly
0.02273°
Mean anomaly
0.0227°
Eccentric anomaly
0.02271°
Mean motion
3.8631 °/min
BSTAR
0.00085337
Orbital period
93.19 mins
Loading maneuver chart data...
Loading SW <> Apogee altitude chart data...
Loading historical data...
Loading historical data...
Loading historical data...
Loading historical data...
Loading historical data...
Loading historical data...
Loading historical data...

DROID-001 Visibility forecast

Observer location: undefined°, undefined°

Span
Click to sort rows by Start time (UTC) header in descending order
Start Az.
Max El. time (UTC)
Max El. Az.
Max El.
End time (UTC)
End Az.
4 mins2025-04-20 09:17:40.983Z214.25° SW2025-04-20 09:19:40.983Z269.404° W24.564°2025-04-20 09:21:40.983Z316.522° NNW
|